Location: C�mpuri de-Sus
(45.9500°N, 22.5500°E)
Time: 05:48:38
(UTC+00:00)

CZ-4C R/B - Pass Details

Date: 24 October 2021
Orbit: 403 x 482 km, 97.7° (Epoch: 04 December)

Event Time Altitude Azimuth Distance (km) Brightness Sun altitude
Rises 16:58:08 0° 11° (NNE) 2,463 6.5 -16.2°
Reaches altitude 10° 17:00:12 10° 10° (N) 1,571 5.5 -16.6°
Maximum altitude 17:03:34 79° 285° (WNW) 448 2.9 -17.2°
Drops below altitude 10° 17:06:48 10° 198° (SSW) 1,513 5.8 -17.8°
Sets 17:08:45 0° 197° (SSW) 2,360 6.8 -18.1°
